| time (UTC) | temp F | wind direction | speed MPH | gust MPH | rain 1hr in | rain 24hr in | rain mn in | humidity % | barometer mb |
| 20260506204359 | 60 | 121 | 0.0 | 0.0 | 0.00 | 0.94 | 0.19 | 94 | 1008.8 |
| 20260506203853 | 60 | 121 | 0.0 | 0.0 | 0.00 | 0.94 | 0.19 | 94 | 1008.8 |
| 20260506203351 | 60 | 121 | 0.0 | 0.0 | 0.00 | 0.94 | 0.19 | 94 | 1008.8 |
| 20260506202910 | 60 | 121 | 0.0 | 0.0 | 0.00 | 0.94 | 0.19 | 94 | 1008.8 |
| 20260506202408 | 60 | 123 | 0.0 | 0.0 | 0.00 | 0.94 | 0.19 | 94 | 1008.8 |
| 20260506201826 | 60 | 123 | 0.0 | 0.0 | 0.00 | 0.94 | 0.19 | 94 | 1008.5 |
| 20260506201319 | 61 | 123 | 0.0 | 0.0 | 0.00 | 0.94 | 0.19 | 94 | 1008.5 |
| 20260506200826 | 61 | 123 | 0.0 | 0.0 | 0.00 | 0.94 | 0.19 | 94 | 1008.5 |
| 20260506200318 | 61 | 123 | 0.0 | 0.0 | 0.00 | 0.94 | 0.19 | 94 | 1008.5 |
| 20260506195827 | 61 | 123 | 0.0 | 0.0 | 0.00 | 0.94 | 0.19 | 94 | 1008.5 |
| 20260506195314 | 61 | 123 | 0.0 | 0.0 | 0.00 | 0.94 | 0.19 | 94 | 1008.5 |
| 20260506194817 | 61 | 123 | 0.0 | 0.0 | 0.00 | 0.94 | 0.19 | 94 | 1008.4 |
| 20260506194321 | 61 | 123 | 0.0 | 0.0 | 0.00 | 0.94 | 0.19 | 94 | 1008.4 |
| 20260506193927 | 61 | 123 | 0.0 | 0.0 | 0.00 | 0.94 | 0.19 | 93 | 1008.4 |
| 20260506193844 | 61 | 123 | 0.0 | 0.0 | 0.00 | 0.94 | 0.19 | 93 | 1008.4 |
| 20260506193334 | 61 | 123 | 0.0 | 0.0 | 0.00 | 0.94 | 0.19 | 94 | 1008.2 |
| 20260506192922 | 61 | 123 | 0.0 | 0.0 | 0.00 | 0.94 | 0.19 | 94 | 1008.2 |
| 20260506192329 | 61 | 123 | 0.0 | 0.0 | 0.00 | 0.94 | 0.19 | 93 | 1008.2 |
| 20260506191819 | 61 | 123 | 0.0 | 0.0 | 0.00 | 0.94 | 0.19 | 93 | 1008.1 |
| 20260506191323 | 61 | 126 | 0.0 | 0.0 | 0.00 | 0.94 | 0.19 | 93 | 1008.1 |
| 20260506190925 | 61 | 136 | 0.0 | 0.0 | 0.00 | 0.94 | 0.19 | 93 | 1008.1 |
| 20260506190402 | 61 | 137 | 0.0 | 0.0 | 0.00 | 0.94 | 0.19 | 93 | 1008.0 |
| 20260506185823 | 62 | 147 | 0.0 | 0.0 | 0.00 | 0.94 | 0.19 | 93 | 1008.0 |
| 20260506185331 | 62 | 153 | 0.0 | 0.0 | 0.00 | 0.94 | 0.19 | 93 | 1008.0 |
| 20260506184819 | 62 | 153 | 0.0 | 0.0 | 0.00 | 0.94 | 0.19 | 93 | 1008.0 |
| 20260506184323 | 62 | 153 | 0.0 | 0.0 | 0.00 | 0.94 | 0.19 | 93 | 1008.0 |
| 20260506183829 | 62 | 153 | 0.0 | 0.0 | 0.00 | 0.94 | 0.19 | 93 | 1008.0 |
| 20260506182858 | 62 | 153 | 0.0 | 0.0 | 0.00 | 0.94 | 0.19 | 92 | 1007.8 |
| 20260506182417 | 62 | 153 | 0.0 | 0.0 | 0.00 | 0.94 | 0.19 | 92 | 1007.8 |
| 20260506181855 | 63 | 153 | 0.0 | 0.0 | 0.00 | 0.94 | 0.19 | 92 | 1007.6 |
| 20260506181325 | 63 | 153 | 0.0 | 0.0 | 0.00 | 0.94 | 0.19 | 92 | 1007.6 |
| 20260506180825 | 63 | 153 | 0.0 | 0.0 | 0.00 | 0.94 | 0.19 | 92 | 1007.6 |
| 20260506180426 | 63 | 153 | 0.0 | 0.0 | 0.00 | 0.94 | 0.19 | 91 | 1007.4 |
| 20260506180343 | 63 | 153 | 0.0 | 0.0 | 0.00 | 0.94 | 0.19 | 91 | 1007.4 |
| 20260506175904 | 63 | 153 | 0.0 | 0.0 | 0.00 | 0.94 | 0.19 | 91 | 1007.4 |
| 20260506175328 | 63 | 153 | 0.0 | 0.0 | 0.00 | 0.94 | 0.19 | 91 | 1007.4 |
| 20260506174850 | 63 | 153 | 0.0 | 0.0 | 0.00 | 0.94 | 0.19 | 91 | 1007.5 |
| 20260506174414 | 63 | 153 | 0.0 | 0.0 | 0.00 | 0.94 | 0.19 | 91 | 1007.5 |
| 20260506173913 | 64 | 153 | 0.0 | 0.0 | 0.00 | 0.94 | 0.19 | 90 | 1007.5 |
| 20260506173431 | 64 | 153 | 0.0 | 0.0 | 0.00 | 0.94 | 0.19 | 90 | 1007.5 |
| 20260506172850 | 64 | 153 | 0.0 | 0.0 | 0.00 | 0.94 | 0.19 | 90 | 1007.5 |
| 20260506172338 | 64 | 153 | 0.0 | 0.0 | 0.00 | 0.94 | 0.19 | 90 | 1007.5 |
| 20260506171838 | 64 | 153 | 0.0 | 0.0 | 0.00 | 0.94 | 0.19 | 90 | 1007.4 |
| 20260506171328 | 63 | 153 | 0.0 | 0.0 | 0.00 | 0.94 | 0.19 | 89 | 1007.4 |
| 20260506170813 | 63 | 153 | 0.0 | 0.0 | 0.00 | 0.94 | 0.19 | 89 | 1007.4 |
| 20260506170318 | 64 | 153 | 0.0 | 0.0 | 0.00 | 0.94 | 0.19 | 89 | 1007.4 |
| 20260506165819 | 63 | 153 | 0.0 | 0.0 | 0.00 | 0.94 | 0.19 | 89 | 1007.4 |
| 20260506165420 | 63 | 153 | 0.0 | 0.0 | 0.00 | 0.94 | 0.19 | 89 | 1007.4 |
| 20260506164823 | 63 | 153 | 0.0 | 0.0 | 0.00 | 0.94 | 0.19 | 89 | 1007.5 |
| 20260506164323 | 63 | 153 | 0.0 | 0.0 | 0.00 | 0.94 | 0.19 | 89 | 1007.5 |
| 20260506163827 | 63 | 153 | 0.0 | 0.0 | 0.00 | 0.94 | 0.19 | 89 | 1007.5 |
| 20260506163425 | 63 | 153 | 0.0 | 4.0 | 0.00 | 0.94 | 0.19 | 89 | 1007.6 |
| 20260506162828 | 63 | 153 | 2.0 | 4.0 | 0.00 | 0.94 | 0.19 | 89 | 1007.6 |
| 20260506162333 | 64 | 154 | 1.0 | 6.0 | 0.00 | 0.94 | 0.19 | 89 | 1007.6 |
| 20260506161930 | 63 | 154 | 2.0 | 6.0 | 0.00 | 0.94 | 0.19 | 90 | 1007.5 |
| 20260506161327 | 64 | 155 | 2.0 | 7.0 | 0.00 | 0.94 | 0.19 | 90 | 1007.5 |
| 20260506160911 | 64 | 156 | 1.0 | 7.0 | 0.00 | 0.94 | 0.19 | 91 | 1007.5 |
| 20260506160332 | 63 | 132 | 0.0 | 0.0 | 0.00 | 0.98 | 0.19 | 91 | 1007.5 |
| 20260506155935 | 63 | 130 | 0.0 | 0.0 | 0.00 | 0.98 | 0.19 | 91 | 1007.5 |
| 20260506155322 | 62 | 128 | 0.0 | 0.0 | 0.00 | 0.98 | 0.19 | 91 | 1007.5 |
| 20260506154903 | 62 | 128 | 0.0 | 0.0 | 0.00 | 0.98 | 0.19 | 92 | 1007.3 |
| 20260506154820 | 62 | 128 | 0.0 | 0.0 | 0.00 | 0.98 | 0.19 | 92 | 1007.3 |
| 20260506154324 | 62 | 128 | 0.0 | 0.0 | 0.00 | 0.98 | 0.19 | 92 | 1007.3 |
| 20260506153852 | 62 | 128 | 0.0 | 0.0 | 0.00 | 0.98 | 0.19 | 93 | 1007.3 |
| 20260506153432 | 62 | 128 | 0.0 | 0.0 | 0.00 | 0.98 | 0.19 | 93 | 1007.5 |
| 20260506152910 | 62 | 128 | 0.0 | 0.0 | 0.00 | 0.98 | 0.19 | 93 | 1007.5 |
| 20260506152326 | 62 | 124 | 0.0 | 0.0 | 0.00 | 0.98 | 0.19 | 93 | 1007.5 |
| 20260506151825 | 62 | 124 | 0.0 | 0.0 | 0.00 | 0.98 | 0.19 | 93 | 1007.5 |
| 20260506151330 | 62 | 124 | 0.0 | 0.0 | 0.00 | 0.98 | 0.19 | 93 | 1007.5 |
| 20260506150405 | 62 | 123 | 1.0 | 5.0 | 0.08 | 1.02 | 0.19 | 93 | 1007.4 |
| 20260506145840 | 63 | 115 | 0.0 | 0.0 | 0.16 | 1.02 | 0.19 | 93 | 1007.4 |
| 20260506145339 | 63 | 91 | 0.0 | 0.0 | 0.20 | 1.02 | 0.19 | 93 | 1007.4 |
| 20260506144819 | 62 | 91 | 0.0 | 0.0 | 0.24 | 1.02 | 0.19 | 93 | 1007.5 |
| 20260506144419 | 62 | 91 | 0.0 | 6.0 | 0.31 | 1.02 | 0.19 | 93 | 1007.5 |
| 20260506143837 | 62 | 91 | 3.0 | 6.0 | 0.39 | 1.02 | 0.19 | 93 | 1007.5 |
| 20260506143319 | 62 | 88 | 0.0 | 6.0 | 0.51 | 1.02 | 0.19 | 93 | 1007.3 |
| 20260506142840 | 62 | 88 | 0.0 | 6.0 | 0.55 | 1.02 | 0.19 | 93 | 1007.3 |
| 20260506142419 | 62 | 90 | 3.0 | 7.0 | 0.59 | 1.02 | 0.19 | 93 | 1007.3 |
| 20260506141819 | 62 | 91 | 3.0 | 7.0 | 0.67 | 1.02 | 0.19 | 93 | 1007.7 |
| 20260506141326 | 62 | 99 | 3.0 | 7.0 | 0.71 | 1.02 | 0.19 | 93 | 1007.7 |
| 20260506140833 | 62 | 104 | 4.0 | 7.0 | 0.67 | 0.98 | 0.18 | 92 | 1007.7 |
| 20260506140333 | 62 | 98 | 4.0 | 7.0 | 0.63 | 0.94 | 0.17 | 92 | 1008.0 |
| 20260506135816 | 63 | 132 | 0.0 | 0.0 | 0.55 | 0.87 | 0.16 | 92 | 1008.0 |
| 20260506135317 | 63 | 132 | 0.0 | 0.0 | 0.51 | 0.83 | 0.15 | 91 | 1008.0 |
| 20260506134821 | 63 | 134 | 0.0 | 4.0 | 0.47 | 0.79 | 0.14 | 91 | 1008.0 |
| 20260506133832 | 63 | 130 | 0.0 | 5.0 | 0.31 | 0.63 | 0.11 | 90 | 1008.0 |
| 20260506133333 | 63 | 130 | 1.0 | 6.0 | 0.20 | 0.51 | 0.09 | 89 | 1008.1 |
| 20260506132817 | 63 | 131 | 3.0 | 7.0 | 0.16 | 0.47 | 0.08 | 89 | 1008.1 |
| 20260506132339 | 63 | 129 | 4.0 | 7.0 | 0.08 | 0.39 | 0.06 | 88 | 1008.1 |
| 20260506131822 | 64 | 127 | 0.0 | 8.0 | 0.04 | 0.35 | 0.06 | 87 | 1008.1 |
| 20260506131349 | 64 | 128 | 3.0 | 8.0 | 0.00 | 0.31 | 0.05 | 87 | 1008.1 |
| 20260506130857 | 64 | 108 | 2.0 | 7.0 | 0.00 | 0.31 | 0.05 | 87 | 1008.1 |
| 20260506130416 | 64 | 170 | 5.0 | 7.0 | 0.00 | 0.31 | 0.05 | 86 | 1008.3 |
| 20260506125818 | 64 | 128 | 3.0 | 8.0 | 0.00 | 0.31 | 0.05 | 87 | 1008.3 |
| 20260506125323 | 64 | 124 | 4.0 | 10.0 | 0.00 | 0.31 | 0.05 | 86 | 1008.3 |
| 20260506124849 | 64 | 110 | 4.0 | 10.0 | 0.00 | 0.31 | 0.05 | 86 | 1008.3 |
| 20260506124406 | 64 | 177 | 3.0 | 8.0 | 0.00 | 0.31 | 0.05 | 87 | 1008.3 |
| 20260506123845 | 64 | 148 | 4.0 | 8.0 | 0.00 | 0.31 | 0.05 | 86 | 1008.3 |
| 20260506123314 | 64 | 163 | 4.0 | 9.0 | 0.00 | 0.31 | 0.05 | 87 | 1008.3 |
| 20260506122938 | 64 | 131 | 3.0 | 12.0 | 0.00 | 0.31 | 0.05 | 86 | 1008.3 |
| 20260506122315 | 64 | 130 | 5.0 | 12.0 | 0.00 | 0.31 | 0.05 | 86 | 1008.3 |
| 20260506121330 | 64 | 101 | 4.0 | 8.0 | 0.00 | 0.31 | 0.05 | 88 | 1008.5 |
| 20260506120931 | 64 | 139 | 1.0 | 6.0 | 0.00 | 0.31 | 0.05 | 88 | 1008.5 |
| 20260506120352 | 64 | 132 | 3.0 | 6.0 | 0.00 | 0.39 | 0.05 | 88 | 1008.5 |
| 20260506115834 | 64 | 123 | 1.0 | 5.0 | 0.00 | 0.39 | 0.05 | 89 | 1008.5 |
| 20260506115314 | 63 | 163 | 0.0 | 0.0 | 0.04 | 0.39 | 0.05 | 89 | 1008.5 |
| 20260506114842 | 63 | 171 | 0.0 | 0.0 | 0.04 | 0.39 | 0.05 | 89 | 1008.7 |
| 20260506114407 | 63 | 171 | 0.0 | 0.0 | 0.04 | 0.39 | 0.05 | 89 | 1008.7 |
| 20260506113905 | 63 | 173 | 0.0 | 0.0 | 0.04 | 0.39 | 0.05 | 89 | 1008.7 |
| 20260506113346 | 62 | 173 | 0.0 | 0.0 | 0.04 | 0.39 | 0.05 | 89 | 1008.9 |
| 20260506112906 | 63 | 174 | 0.0 | 0.0 | 0.08 | 0.39 | 0.05 | 92 | 1008.9 |
| 20260506112330 | 63 | 178 | 0.0 | 0.0 | 0.08 | 0.39 | 0.05 | 90 | 1008.9 |
| 20260506111911 | 62 | 180 | 0.0 | 0.0 | 0.08 | 0.39 | 0.05 | 90 | 1008.9 |
| 20260506111330 | 62 | 180 | 0.0 | 0.0 | 0.08 | 0.39 | 0.05 | 90 | 1008.9 |
| 20260506110843 | 62 | 180 | 0.0 | 0.0 | 0.08 | 0.39 | 0.05 | 90 | 1008.9 |
| 20260506110347 | 62 | 180 | 0.0 | 0.0 | 0.08 | 0.47 | 0.05 | 90 | 1009.0 |
| 20260506105830 | 63 | 181 | 0.0 | 0.0 | 0.08 | 0.47 | 0.05 | 90 | 1009.0 |
| 20260506104903 | 62 | 181 | 0.0 | 0.0 | 0.04 | 0.43 | 0.04 | 89 | 1009.2 |
| 20260506104402 | 62 | 181 | 0.0 | 0.0 | 0.08 | 0.43 | 0.04 | 89 | 1009.2 |
| 20260506103841 | 63 | 183 | 0.0 | 0.0 | 0.08 | 0.43 | 0.04 | 88 | 1009.2 |
| 20260506103403 | 62 | 178 | 0.0 | 4.0 | 0.04 | 0.39 | 0.03 | 88 | 1009.2 |
| 20260506102845 | 62 | 179 | 0.0 | 4.0 | 0.04 | 0.39 | 0.03 | 88 | 1009.2 |
| 20260506102404 | 62 | 159 | 0.0 | 0.0 | 0.04 | 0.39 | 0.03 | 88 | 1009.2 |
| 20260506101833 | 62 | 159 | 0.0 | 6.0 | 0.04 | 0.39 | 0.03 | 87 | 1009.5 |
| 20260506101335 | 62 | 159 | 1.0 | 6.0 | 0.04 | 0.39 | 0.03 | 87 | 1009.5 |
| 20260506100837 | 62 | 168 | 1.0 | 6.0 | 0.04 | 0.39 | 0.03 | 87 | 1009.5 |
| 20260506100316 | 62 | 160 | 3.0 | 6.0 | 0.04 | 0.43 | 0.03 | 87 | 1009.3 |
| 20260506095823 | 63 | 157 | 3.0 | 6.0 | 0.08 | 0.43 | 0.03 | 87 | 1009.3 |
| 20260506095351 | 63 | 159 | 0.0 | 0.0 | 0.08 | 0.43 | 0.03 | 87 | 1009.3 |
| 20260506094852 | 63 | 157 | 0.0 | 0.0 | 0.08 | 0.43 | 0.03 | 86 | 1009.3 |
| 20260506094354 | 63 | 158 | 0.0 | 0.0 | 0.04 | 0.39 | 0.02 | 85 | 1009.3 |
| 20260506093914 | 63 | 167 | 0.0 | 0.0 | 0.04 | 0.39 | 0.02 | 86 | 1009.3 |
| 20260506093355 | 64 | 167 | 0.0 | 0.0 | 0.04 | 0.39 | 0.02 | 85 | 1009.2 |
| 20260506092836 | 64 | 167 | 0.0 | 0.0 | 0.04 | 0.39 | 0.02 | 85 | 1009.2 |
| 20260506092343 | 64 | 167 | 0.0 | 0.0 | 0.04 | 0.39 | 0.02 | 86 | 1009.2 |
| 20260506091845 | 64 | 169 | 0.0 | 0.0 | 0.04 | 0.39 | 0.02 | 86 | 1009.0 |
| 20260506091352 | 64 | 173 | 0.0 | 0.0 | 0.04 | 0.39 | 0.02 | 87 | 1009.0 |
| 20260506090832 | 64 | 178 | 0.0 | 4.0 | 0.04 | 0.39 | 0.02 | 87 | 1009.0 |
| 20260506090335 | 64 | 180 | 0.0 | 4.0 | 0.04 | 0.43 | 0.02 | 88 | 1008.8 |
| 20260506085856 | 63 | 136 | 0.0 | 0.0 | 0.00 | 0.39 | 0.02 | 89 | 1008.8 |
| 20260506085316 | 63 | 128 | 0.0 | 0.0 | 0.00 | 0.39 | 0.02 | 91 | 1008.8 |
| 20260506084820 | 63 | 94 | 0.0 | 0.0 | 0.00 | 0.39 | 0.02 | 92 | 1008.7 |
| 20260506084400 | 63 | 94 | 0.0 | 0.0 | 0.00 | 0.39 | 0.02 | 93 | 1008.7 |
| 20260506083821 | 63 | 90 | 0.0 | 0.0 | 0.00 | 0.39 | 0.02 | 94 | 1008.7 |
| 20260506083328 | 62 | 88 | 0.0 | 0.0 | 0.00 | 0.39 | 0.02 | 94 | 1008.5 |
| 20260506082829 | 63 | 88 | 0.0 | 0.0 | 0.00 | 0.39 | 0.02 | 95 | 1008.5 |
| 20260506082314 | 62 | 88 | 0.0 | 5.0 | 0.00 | 0.39 | 0.02 | 95 | 1008.5 |
| 20260506081818 | 62 | 88 | 0.0 | 6.0 | 0.00 | 0.39 | 0.02 | 95 | 1008.7 |
| 20260506081322 | 62 | 47 | 0.0 | 0.0 | 0.00 | 0.39 | 0.02 | 95 | 1008.7 |
| 20260506080846 | 62 | 47 | 0.0 | 0.0 | 0.00 | 0.39 | 0.02 | 95 | 1008.7 |
| 20260506080329 | 62 | 47 | 0.0 | 0.0 | 0.00 | 0.39 | 0.02 | 95 | 1008.9 |
| 20260506073341 | 61 | 47 | 0.0 | 0.0 | 0.00 | 0.39 | 0.02 | 95 | 1008.9 |
| 20260506072816 | 61 | 47 | 0.0 | 0.0 | 0.00 | 0.39 | 0.02 | 95 | 1008.9 |
| 20260506072340 | 60 | 47 | 0.0 | 0.0 | 0.00 | 0.39 | 0.02 | 95 | 1008.9 |
| 20260506071825 | 60 | 47 | 0.0 | 0.0 | 0.00 | 0.39 | 0.02 | 95 | 1008.8 |
| 20260506070819 | 60 | 47 | 0.0 | 0.0 | 0.00 | 0.39 | 0.02 | 95 | 1008.8 |
| 20260506070403 | 60 | 47 | 0.0 | 0.0 | 0.00 | 0.39 | 0.02 | 95 | 1008.9 |
| 20260506062317 | 59 | 42 | 0.0 | 0.0 | 0.00 | 0.39 | 0.02 | 95 | 1008.7 |
| 20260506061859 | 59 | 38 | 0.0 | 0.0 | 0.00 | 0.39 | 0.02 | 95 | 1008.7 |
| 20260506061318 | 59 | 33 | 0.0 | 0.0 | 0.00 | 0.39 | 0.02 | 95 | 1008.7 |
| 20260506060842 | 58 | 33 | 0.0 | 0.0 | 0.00 | 0.39 | 0.02 | 95 | 1008.7 |
| 20260506060406 | 58 | 26 | 0.0 | 0.0 | 0.04 | 0.39 | 0.02 | 95 | 1008.6 |
| 20260506050915 | 58 | 26 | 0.0 | 0.0 | 0.08 | 0.39 | 0.02 | 95 | 1009.0 |
| 20260506050316 | 58 | 26 | 0.0 | 0.0 | 0.04 | 0.35 | 0.01 | 95 | 1009.0 |
| 20260506044908 | 57 | 26 | 0.0 | 0.0 | 0.04 | 0.35 | 0.01 | 95 | 1009.0 |
| 20260506044330 | 57 | 25 | 0.0 | 0.0 | 0.04 | 0.35 | 0.01 | 95 | 1009.0 |
| 20260506043854 | 57 | 25 | 0.0 | 0.0 | 0.00 | 0.31 | 0.00 | 95 | 1009.0 |
| 20260506043334 | 57 | 25 | 0.0 | 0.0 | 0.00 | 0.31 | 0.00 | 95 | 1008.8 |
| 20260506042835 | 57 | 25 | 0.0 | 0.0 | 0.00 | 0.31 | 0.00 | 95 | 1008.8 |
| 20260506041830 | 57 | 25 | 0.0 | 0.0 | 0.00 | 0.31 | 0.00 | 95 | 1008.8 |
| 20260506041410 | 57 | 25 | 0.0 | 0.0 | 0.00 | 0.31 | 0.00 | 95 | 1008.8 |
| 20260506040812 | 56 | 24 | 0.0 | 0.0 | 0.00 | 0.31 | 0.00 | 95 | 1008.8 |
| 20260506040346 | 56 | 24 | 0.0 | 0.0 | 0.00 | 0.31 | 0.00 | 95 | 1008.9 |
| 20260506035825 | 56 | 24 | 0.0 | 0.0 | 0.00 | 0.31 | 0.00 | 95 | 1008.9 |
| 20260506035347 | 56 | 24 | 0.0 | 0.0 | 0.00 | 0.31 | 0.00 | 95 | 1008.9 |
| 20260506034810 | 56 | 24 | 0.0 | 0.0 | 0.00 | 0.31 | 0.00 | 95 | 1009.1 |
| 20260506034337 | 56 | 24 | 0.0 | 0.0 | 0.00 | 0.31 | 0.00 | 95 | 1009.1 |
| 20260506033816 | 56 | 24 | 0.0 | 0.0 | 0.00 | 0.31 | 0.00 | 95 | 1009.1 |
| 20260506033318 | 56 | 24 | 0.0 | 0.0 | 0.00 | 0.31 | 0.00 | 95 | 1009.0 |
| 20260506032859 | 56 | 24 | 0.0 | 0.0 | 0.00 | 0.31 | 0.00 | 95 | 1009.0 |
| 20260506032342 | 56 | 24 | 0.0 | 0.0 | 0.00 | 0.31 | 0.00 | 95 | 1009.0 |
| 20260506031901 | 56 | 24 | 0.0 | 0.0 | 0.00 | 0.31 | 0.00 | 95 | 1009.2 |
| 20260506031322 | 56 | 24 | 0.0 | 0.0 | 0.00 | 0.31 | 0.00 | 95 | 1009.2 |
| 20260506030826 | 56 | 24 | 0.0 | 0.0 | 0.00 | 0.31 | 0.00 | 95 | 1009.2 |
| 20260506030330 | 56 | 24 | 0.0 | 0.0 | 0.00 | 0.31 | 0.00 | 95 | 1009.5 |
| 20260506025424 | 56 | 24 | 0.0 | 0.0 | 0.00 | 0.31 | 0.00 | 95 | 1009.5 |
| 20260506024828 | 56 | 24 | 0.0 | 0.0 | 0.00 | 0.31 | 0.00 | 95 | 1009.5 |
| 20260506024351 | 56 | 24 | 0.0 | 0.0 | 0.00 | 0.31 | 0.00 | 94 | 1009.5 |
| 20260506023904 | 56 | 24 | 0.0 | 0.0 | 0.00 | 0.31 | 0.00 | 94 | 1009.5 |
| 20260506023406 | 56 | 24 | 0.0 | 0.0 | 0.00 | 0.31 | 0.00 | 94 | 1009.5 |
| 20260506022845 | 56 | 24 | 0.0 | 0.0 | 0.00 | 0.31 | 0.00 | 95 | 1009.5 |
| 20260506021913 | 56 | 24 | 0.0 | 0.0 | 0.00 | 0.31 | 0.00 | 94 | 1009.7 |
| 20260506021316 | 56 | 24 | 0.0 | 0.0 | 0.00 | 0.31 | 0.00 | 94 | 1009.7 |
| 20260506020916 | 57 | 24 | 0.0 | 0.0 | 0.00 | 0.31 | 0.00 | 94 | 1009.7 |
| 20260506020319 | 57 | 24 | 0.0 | 0.0 | 0.00 | 0.31 | 0.00 | 94 | 1009.8 |
| 20260506015819 | 57 | 24 | 0.0 | 0.0 | 0.00 | 0.31 | 0.00 | 94 | 1009.8 |
| 20260506015323 | 57 | 24 | 0.0 | 0.0 | 0.00 | 0.31 | 0.00 | 94 | 1009.8 |
| 20260506014816 | 57 | 24 | 0.0 | 0.0 | 0.00 | 0.31 | 0.00 | 94 | 1009.8 |
| 20260506014319 | 57 | 24 | 0.0 | 0.0 | 0.00 | 0.31 | 0.00 | 94 | 1009.8 |
| 20260506013920 | 57 | 24 | 0.0 | 0.0 | 0.00 | 0.31 | 0.00 | 94 | 1009.8 |
| 20260506013338 | 57 | 24 | 0.0 | 0.0 | 0.00 | 0.31 | 0.00 | 94 | 1010.0 |
| 20260506012823 | 57 | 24 | 0.0 | 0.0 | 0.00 | 0.31 | 0.00 | 94 | 1010.0 |
| 20260506012323 | 57 | 24 | 0.0 | 0.0 | 0.00 | 0.31 | 0.00 | 94 | 1010.0 |
| 20260506011823 | 57 | 24 | 0.0 | 0.0 | 0.00 | 0.31 | 0.00 | 94 | 1010.0 |
| 20260506011429 | 57 | 24 | 0.0 | 0.0 | 0.00 | 0.31 | 0.00 | 94 | 1010.0 |
| 20260506010830 | 57 | 24 | 0.0 | 0.0 | 0.00 | 0.31 | 0.00 | 94 | 1010.0 |
| 20260506010431 | 57 | 24 | 0.0 | 0.0 | 0.00 | 0.31 | 0.00 | 94 | 1010.0 |
| 20260506005359 | 57 | 24 | 0.0 | 5.0 | 0.00 | 0.31 | 0.00 | 94 | 1010.0 |
| 20260506004819 | 57 | 24 | 1.0 | 6.0 | 0.00 | 0.31 | 0.00 | 94 | 1010.1 |
| 20260506004344 | 57 | 24 | 1.0 | 5.0 | 0.00 | 0.31 | 0.00 | 94 | 1010.1 |
| 20260506003921 | 57 | 24 | 3.0 | 5.0 | 0.00 | 0.31 | 0.00 | 94 | 1010.1 |
| 20260506003319 | 57 | 24 | 0.0 | 0.0 | 0.00 | 0.31 | 0.00 | 94 | 1010.1 |
| 20260506002841 | 57 | 24 | 0.0 | 0.0 | 0.00 | 0.31 | 0.00 | 94 | 1010.1 |
| 20260506002330 | 57 | 24 | 0.0 | 0.0 | 0.00 | 0.31 | 0.00 | 94 | 1010.1 |
| 20260506001913 | 57 | 24 | 0.0 | 0.0 | 0.00 | 0.31 | 0.00 | 94 | 1010.1 |
| 20260506001332 | 57 | 24 | 0.0 | 5.0 | 0.00 | 0.31 | 0.00 | 94 | 1010.1 |
| 20260506000916 | 57 | 24 | 2.0 | 6.0 | 0.00 | 0.31 | 0.00 | 94 | 1010.1 |
| 20260506000342 | 57 | 24 | 1.0 | 6.0 | 0.00 | 0.31 | 0.00 | 94 | 1010.1 |
| 20260505235922 | 57 | 24 | 0.0 | 4.0 | 0.00 | 0.31 | 0.00 | 94 | 1010.1 |
| 20260505235343 | 57 | 24 | 0.0 | 5.0 | 0.00 | 0.31 | 0.00 | 94 | 1010.1 |
| 20260505234812 | 57 | 24 | 3.0 | 5.0 | 0.00 | 0.31 | 0.00 | 94 | 1010.3 |
| 20260505234436 | 57 | 24 | 1.0 | 5.0 | 0.00 | 0.31 | 0.00 | 94 | 1010.3 |
| 20260505233816 | 57 | 24 | 2.0 | 7.0 | 0.00 | 0.31 | 0.00 | 95 | 1010.3 |
| 20260505233319 | 57 | 24 | 2.0 | 7.0 | 0.00 | 0.31 | 0.00 | 95 | 1010.5 |
| 20260505232826 | 57 | 24 | 4.0 | 7.0 | 0.00 | 0.31 | 0.00 | 95 | 1010.5 |
| 20260505232312 | 57 | 24 | 3.0 | 5.0 | 0.00 | 0.31 | 0.00 | 95 | 1010.5 |
| 20260505231816 | 57 | 24 | 0.0 | 0.0 | 0.00 | 0.31 | 0.00 | 95 | 1010.6 |
| 20260505231320 | 57 | 24 | 0.0 | 0.0 | 0.00 | 0.31 | 0.00 | 95 | 1010.6 |
| 20260505230822 | 57 | 24 | 0.0 | 0.0 | 0.00 | 0.31 | 0.00 | 95 | 1010.6 |
| 20260505230326 | 57 | 24 | 0.0 | 0.0 | 0.00 | 0.31 | 0.00 | 95 | 1010.7 |
| 20260505225833 | 57 | 24 | 0.0 | 0.0 | 0.00 | 0.31 | 0.00 | 95 | 1010.7 |
| 20260505225318 | 57 | 24 | 0.0 | 0.0 | 0.00 | 0.31 | 0.00 | 95 | 1010.7 |
| 20260505224839 | 57 | 24 | 0.0 | 0.0 | 0.00 | 0.31 | 0.00 | 95 | 1011.0 |
| 20260505224318 | 57 | 24 | 0.0 | 0.0 | 0.00 | 0.31 | 0.00 | 95 | 1011.0 |
| 20260505223825 | 57 | 24 | 0.0 | 0.0 | 0.00 | 0.31 | 0.00 | 95 | 1011.0 |
| 20260505223329 | 57 | 24 | 0.0 | 0.0 | 0.00 | 0.31 | 0.00 | 95 | 1011.1 |
| 20260505222853 | 57 | 24 | 0.0 | 0.0 | 0.00 | 0.31 | 0.00 | 95 | 1011.1 |
| 20260505222333 | 57 | 24 | 0.0 | 0.0 | 0.00 | 0.31 | 0.00 | 95 | 1011.1 |
| 20260505221838 | 57 | 24 | 0.0 | 0.0 | 0.00 | 0.31 | 0.00 | 95 | 1011.1 |
| 20260505221321 | 57 | 24 | 0.0 | 0.0 | 0.00 | 0.31 | 0.00 | 95 | 1011.1 |
| 20260505220822 | 57 | 24 | 0.0 | 0.0 | 0.00 | 0.31 | 0.00 | 95 | 1011.1 |
| 20260505220348 | 56 | 24 | 0.0 | 0.0 | 0.00 | 0.31 | 0.06 | 95 | 1011.1 |
| 20260505215828 | 56 | 24 | 0.0 | 0.0 | 0.00 | 0.31 | 0.06 | 95 | 1011.1 |
| 20260505215429 | 56 | 24 | 0.0 | 0.0 | 0.00 | 0.31 | 0.06 | 95 | 1011.1 |
| 20260505214826 | 56 | 24 | 0.0 | 0.0 | 0.00 | 0.31 | 0.06 | 95 | 1011.2 |
| 20260505214428 | 56 | 24 | 0.0 | 0.0 | 0.00 | 0.31 | 0.06 | 95 | 1011.2 |
| 20260505213845 | 56 | 24 | 0.0 | 0.0 | 0.00 | 0.31 | 0.06 | 95 | 1011.2 |
| 20260505213326 | 56 | 24 | 0.0 | 0.0 | 0.00 | 0.31 | 0.06 | 95 | 1011.3 |
| 20260505212830 | 56 | 24 | 0.0 | 0.0 | 0.00 | 0.31 | 0.06 | 95 | 1011.3 |
| 20260505212438 | 56 | 24 | 0.0 | 0.0 | 0.00 | 0.31 | 0.06 | 95 | 1011.3 |
| 20260505211332 | 56 | 24 | 0.0 | 0.0 | 0.00 | 0.31 | 0.06 | 95 | 1011.2 |
| 20260505210833 | 56 | 24 | 0.0 | 0.0 | 0.00 | 0.31 | 0.06 | 95 | 1011.2 |
| 20260505210333 | 57 | 24 | 0.0 | 4.0 | 0.00 | 0.31 | 0.06 | 95 | 1011.2 |
| 20260505205824 | 57 | 24 | 2.0 | 5.0 | 0.00 | 0.31 | 0.06 | 95 | 1011.2 |
| 20260505205405 | 57 | 24 | 2.0 | 5.0 | 0.00 | 0.31 | 0.06 | 95 | 1011.2 |
| 20260505204905 | 57 | 24 | 2.0 | 6.0 | 0.00 | 0.31 | 0.06 | 95 | 1011.4 |